COSMOS 2251 DEB, 34477

Orbit data source: Space-Track

COSMOS 2251 DEB, 34477 is space debris in LEO originally from a launch on Wed, 16 Jun 1993 UTC launched from the Plesetsk Missile And Space Complex (PKMTR). The debris from Iridium 33, an American commercial communications satellite, has been tracked extensively since its accidental collision with the defunct Russian satellite Cosmos 2251 in 2009. This event, occurring at high speed in low Earth orbit (LEO), generated thousands of pieces of space debris, significantly increasing the risk of further collisions. The Iridium 33 debris cloud has impacted space traffic management and orbital debris mitigation strategies, making it a subject of ongoing study in space situational awareness.

Loading next visibility...
Identifier
34477, 1993-036TW
Orbit
LEO
Country
Flag of CISCIS
Related business
Manufacturer
Unknown
Mission
Spacecraft
Bus & Motor
Unknown
Mass
Unknown
Launch date (UTC)
1993-06-16 (33 years ago)
Launch vehicle
Unknown
Launch site
Plesetsk Missile And Space Complex (PKMTR)
Object type
Payload
Rocket body
Debris
Shape & HBR
Unknown shape, 0.1 m
Radar Cross Section
Medium (>0.1 m² and <1 m²)

Expand to show TLE details & history
Last TLE update: 10 hours ago

TLE from 10 hours ago
0 COSMOS 2251 DEB
1 34477U 93036TW  26265.08999012  .00001932  00000-0  40906-3 0  9992
2 34477  73.9744 248.8177 0073637   6.1922  68.2771 14.58294631927545
Epoch: 2026-09-22T02:09Z
TLE epoch observation values (Epoch: 2026-09-22T02:09:35.146Z)
Latitude
68.44932°
Longitude
-98.20584°
Altitude
691.207 km
Speed
7.527 km/s
True Right ascension
19h 40m 36s
True Declination
68° 19' 50"
Sunlit
Object was in daylight at epoch
Visualization orbit readout
Latitude
Unknown
Longitude
Unknown
Altitude
Unknown
Speed
Unknown
Apparent Right ascension
Unknown
Apparent Declination
Unknown
Sunlit
N/A
Visualization observer readout
Local Sidereal Time
05:04:00
Azimuth
Unknown
Elevation
Unknown
Doppler factor
Unknown
Orbital elements
Apogee altitude
748.384 km
Perigee altitude
644.196 km
Semi-major axis
7,074.427 km
Eccentricity
0.00736
Inclination
73.9744°
RAAN
248.8177°
Arg. of periapsis
6.1922°
True anomaly
69.06365°
Mean anomaly
68.2771°
Eccentric anomaly
68.67011°
Mean motion
3.64759 °/min
Orbital period
98.7 mins
BSTAR
0.00040906

Documentation

Showing up to 5 results
|